Location: Elbart
(49.6135°N, 11.9134°E)
Time: 09:04:26
(UTC+00:00)

CZ-4C R/B - Pass Details

Date: 09 April 2020
Orbit: 637 x 1364 km, 63.4° (Epoch: 24 May)

Event Time Altitude Azimuth Distance (km) Brightness Sun altitude
Rises 20:49:53 0° 317° (NW) 3,736 7.0 -24.4°
Reaches altitude 10° 20:52:20 10° 318° (NW) 2,883 6.0 -24.7°
Maximum altitude 20:59:21 78° 46° (NE) 1,224 2.9 -25.4°
Enters shadow 21:01:48 48° 122° (ESE) 1,569 3.1 -25.6°
